College Park, MD

4:39 PM EST on December 10, 2019 (GMT -0500)
College Park

Weather History for KCGS - October, 2019

Change the Weather History Date:

Friday, October 18, 2019

  Actual Average Record
Temperature  
Mean Temperature 54 °F -  
Max Temperature 62 °F 66 °F 82 °F (1963)
Min Temperature 44 °F 45 °F 30 °F (1977)
Degree Days  
Heating Degree Days 12    
Growing Degree Days 4 (Base 50)    
Moisture  
Dew Point 32 °F    
Average Humidity 45    
Maximum Humidity 71    
Minimum Humidity 31    
Precipitation  
Precipitation 0.00 in - - ()
Sea Level Pressure  
Sea Level Pressure 29.95 in    
Wind  
Wind Speed 7 mph (WNW)    
Max Wind Speed 16 mph    
Max Gust Speed 24 mph    
Visibility 10 miles    
Events      
Averages and records for this station are not official NWS values.
T = Trace of Precipitation, MM = Missing Value Source: NWS Daily Summary

Daily Weather History Graph

Daily Weather History Graph

Search for Another Location

Airport or City:

Astronomy

Oct. 18, 2019 Rise Set
Actual Time 7:19 AM EDT 6:25 PM EDT
Civil Twilight 6:52 AM EDT 6:52 PM EDT
Nautical Twilight 6:21 AM EDT 7:23 PM EDT
Astronomical Twilight 5:51 AM EDT 7:53 PM EDT
Moon 9:42 PM EDT (10/18) 11:48 AM EDT (10/18)
Length of Visible Light 11h 59m
Length of Day
11h 05m
Waning Gibbous, 79% of the Moon is Illuminated
Oct 18
Waning Gibbous
Oct 21
Last Quarter
Oct 27
New
Nov 4
First Quarter
Nov 12
Full

Hourly Weather History & Observations

Time (EDT) Temp. Windchill Dew Point Humidity Pressure Visibility Wind Dir Wind Speed Gust Speed Precip Events Conditions
12:03 AM 50.4 °F - 29.3 °F 44% 29.83 in 10.0 mi NW 8.1 mph - N/A   Clear
12:23 AM 50.4 °F - 29.1 °F 44% 29.84 in 10.0 mi NW 8.1 mph - N/A   Clear
12:43 AM 50.2 °F - 29.3 °F 45% 29.84 in 10.0 mi NW 6.9 mph - N/A   Clear
1:03 AM 50.2 °F - 29.7 °F 45% 29.84 in 10.0 mi NW 8.1 mph - N/A   Clear
1:23 AM 49.8 °F - 30.0 °F 47% 29.84 in 10.0 mi WNW 10.4 mph - N/A   Clear
1:43 AM 49.5 °F - 30.2 °F 48% 29.85 in 10.0 mi WNW 5.8 mph - N/A   Clear
2:03 AM 49.1 °F - 30.7 °F 49% 29.85 in 10.0 mi NW 6.9 mph - N/A   Clear
2:23 AM 49.1 °F - 31.1 °F 50% 29.85 in 10.0 mi WNW 5.8 mph - N/A   Clear
3:03 AM 48.4 °F - 31.5 °F 52% 29.85 in 10.0 mi Calm Calm - N/A   Clear
3:23 AM 48.4 °F - 31.8 °F 53% 29.85 in 10.0 mi WNW 9.2 mph - N/A   Clear
3:43 AM 48.4 °F - 32.0 °F 53% 29.85 in 10.0 mi West 5.8 mph - N/A   Clear
4:03 AM 48.2 °F - 32.0 °F 54% 29.85 in 10.0 mi WNW 6.9 mph - N/A   Clear
4:23 AM 48.2 °F - 32.0 °F 54% 29.86 in 10.0 mi WNW 3.5 mph - N/A   Clear
4:43 AM 48.0 °F - 32.0 °F 54% 29.86 in 10.0 mi Calm Calm - N/A   Clear
5:03 AM 47.7 °F - 32.0 °F 55% 29.87 in 10.0 mi West 4.6 mph - N/A   Clear
5:23 AM 47.7 °F - 32.0 °F 55% 29.88 in 10.0 mi West 4.6 mph - N/A   Clear
5:43 AM 47.5 °F - 32.0 °F 55% 29.89 in 10.0 mi Calm Calm - N/A   Clear
6:03 AM 46.4 °F 45.2 °F 32.0 °F 57% 29.89 in 10.0 mi West 3.5 mph - N/A   Clear
6:23 AM 46.4 °F - 32.0 °F 57% 29.90 in 10.0 mi Calm Calm - N/A   Clear
6:43 AM 45.9 °F - 32.2 °F 59% 29.91 in 10.0 mi Calm Calm - N/A   Clear
7:23 AM 45.5 °F 43.2 °F 32.4 °F 60% 29.92 in 10.0 mi WSW 4.6 mph - N/A   Clear
8:03 AM 46.8 °F - 32.4 °F 57% 29.93 in 10.0 mi West 5.8 mph - N/A   Clear
8:23 AM 47.7 °F - 32.9 °F 57% 29.95 in 10.0 mi West 3.5 mph - N/A   Clear
8:43 AM 49.1 °F - 32.9 °F 54% 29.95 in 10.0 mi NNW 3.5 mph - N/A   Clear
9:03 AM 50.4 °F - 32.5 °F 50% 29.95 in 10.0 mi WNW 5.8 mph - N/A   Clear
9:23 AM 51.8 °F - 32.4 °F 48% 29.96 in 10.0 mi NNW 11.5 mph 19.6 mph N/A   Clear
9:43 AM 52.3 °F - 32.2 °F 46% 29.96 in 10.0 mi NW 9.2 mph 18.4 mph N/A   Clear
10:03 AM 53.2 °F - 32.2 °F 45% 29.96 in 10.0 mi WNW 12.7 mph 18.4 mph N/A   Clear
10:23 AM 53.4 °F - 32.0 °F 44% 29.96 in 10.0 mi NNW 10.4 mph 17.3 mph N/A   Scattered Clouds
10:43 AM 54.5 °F - 32.0 °F 42% 29.96 in 10.0 mi North 10.4 mph 18.4 mph N/A   Scattered Clouds
11:03 AM 54.1 °F - 31.8 °F 43% 29.96 in 10.0 mi NNW 15.0 mph 20.7 mph N/A   Scattered Clouds
11:23 AM 56.7 °F - 31.8 °F 39% 29.96 in 10.0 mi NNW 16.1 mph 20.7 mph N/A   Scattered Clouds
11:43 AM 56.5 °F - 31.6 °F 39% 29.96 in 10.0 mi NNW 15.0 mph 24.2 mph N/A   Clear
12:03 PM 57.2 °F - 31.5 °F 38% 29.96 in 10.0 mi NW 9.2 mph 18.4 mph N/A   Scattered Clouds
12:23 PM 58.1 °F - 31.1 °F 36% 29.96 in 10.0 mi WNW 13.8 mph 18.4 mph N/A   Scattered Clouds
12:43 PM 57.6 °F - 30.9 °F 36% 29.97 in 10.0 mi WNW 6.9 mph 18.4 mph N/A   Clear
1:03 PM 59.2 °F - 30.9 °F 34% 29.96 in 10.0 mi NW 11.5 mph 16.1 mph N/A   Clear
1:43 PM 60.1 °F - 29.8 °F 32% 29.95 in 10.0 mi NNW 9.2 mph 17.3 mph N/A   Clear
2:03 PM 60.6 °F - 30.2 °F 32% 29.95 in 10.0 mi NNW 9.2 mph 19.6 mph N/A   Clear
2:23 PM 61.3 °F - 30.0 °F 31% 29.95 in 10.0 mi NW 10.4 mph 17.3 mph N/A   Clear
2:43 PM 61.5 °F - 30.2 °F 31% 29.95 in 10.0 mi NW 10.4 mph 18.4 mph N/A   Clear
3:03 PM 62.1 °F - 31.1 °F 31% 29.94 in 10.0 mi WNW 8.1 mph - N/A   Clear
3:23 PM 61.9 °F - 30.4 °F 31% 29.94 in 10.0 mi NW 15.0 mph 18.4 mph N/A   Clear
3:43 PM 62.6 °F - 31.5 °F 31% 29.94 in 10.0 mi WNW 10.4 mph - N/A   Clear
4:03 PM 62.6 °F - 31.1 °F 31% 29.95 in 10.0 mi NNW 9.2 mph - N/A   Clear
4:23 PM 62.4 °F - 31.1 °F 31% 29.95 in 10.0 mi WNW 8.1 mph - N/A   Clear
4:43 PM 62.1 °F - 31.1 °F 31% 29.96 in 10.0 mi West 10.4 mph 16.1 mph N/A   Clear
5:03 PM 61.7 °F - 31.1 °F 32% 29.96 in 10.0 mi WNW 6.9 mph - N/A   Clear
5:23 PM 61.2 °F - 31.1 °F 32% 29.96 in 10.0 mi WNW 11.5 mph 18.4 mph N/A   Clear
5:43 PM 60.8 °F - 31.1 °F 33% 29.97 in 10.0 mi WNW 9.2 mph - N/A   Clear
6:03 PM 59.7 °F - 31.8 °F 35% 29.97 in 10.0 mi WNW 5.8 mph - N/A   Clear
6:23 PM 58.8 °F - 32.0 °F 36% 29.98 in 10.0 mi WNW 3.5 mph - N/A   Clear
6:43 PM 57.9 °F - 32.0 °F 37% 29.99 in 10.0 mi West 4.6 mph - N/A   Clear
7:03 PM 57.2 °F - 32.4 °F 39% 30.00 in 10.0 mi WNW 5.8 mph - N/A   Clear
7:23 PM 56.5 °F - 32.5 °F 40% 30.02 in 10.0 mi Calm Calm - N/A   Clear
7:43 PM 55.8 °F - 32.9 °F 42% 30.03 in 10.0 mi West 4.6 mph - N/A   Clear
8:03 PM 55.2 °F - 32.7 °F 43% 30.03 in 10.0 mi Calm Calm - N/A   Clear
8:23 PM 54.7 °F - 32.5 °F 43% 30.04 in 10.0 mi West 4.6 mph - N/A   Clear
8:43 PM 54.5 °F - 32.9 °F 44% 30.05 in 10.0 mi Calm Calm - N/A   Clear
9:03 PM 51.3 °F - 34.3 °F 52% 30.05 in 10.0 mi Calm Calm - N/A   Clear
9:23 PM 51.3 °F - 34.2 °F 52% 30.06 in 10.0 mi Calm Calm - N/A   Clear
9:43 PM 52.7 °F - 33.4 °F 48% 30.06 in 10.0 mi NNW 3.5 mph - N/A   Clear
10:03 PM 52.0 °F - 33.3 °F 49% 30.06 in 10.0 mi NW 3.5 mph - N/A   Clear
10:23 PM 50.9 °F - 33.6 °F 52% 30.06 in 10.0 mi Calm Calm - N/A   Clear
10:43 PM 48.6 °F - 35.2 °F 60% 30.06 in 10.0 mi Calm Calm - N/A   Clear
11:03 PM 49.8 °F - 34.0 °F 55% 30.06 in 10.0 mi Calm Calm - N/A   Clear
11:23 PM 46.8 °F - 35.6 °F 65% 30.06 in 10.0 mi Calm Calm - N/A   Clear
11:43 PM 44.6 °F - 35.8 °F 71% 30.06 in 10.0 mi Calm Calm - N/A   Clear